CAPE
7 6 9 2 3 1 1 1 0 0 0 0 0 0 0 0 0 0 2 14 6 11 10 24 49 15 5 0 0 0 117 358 63 2 0 0 0 0 0 0 0 0 0 0 0 0 0
2 2 6 5 2 3 1 1 0 0 0 0 0 0 0 0 0 0 5 3 38 44 31 35 20 12 0 0 0 0 81 158 40 0 0 0 0 0 0 0 0 0 0 0 0 0 0
2 3 3 4 4 1 2 1 2 1 0 0 0 0 0 0 0 0 0 20 2 0 0 17 0 0 0 0 0 0 0 40 0 0 0 0 0 0 0 0 0 0 0 0 0 0 0
5 4 2 2 3 2 2 2 1 4 1 0 0 0 0 0 0 0 0 0 2 0 2 0 0 0 0 0 0 0 0 0 0 0 0 0 0 0 0 0 0 0 0 0 0 0 0
3 3 3 2 0 4 3 0 0 2 2 1 0 0 0 0 0 0 0 0 4 2 12 0 0 0 0 0 0 0 0 0 0 0 0 0 0 0 0 0 0 0 0 0 0 0 0
1 2 2 2 3 2 2 2 2 1 2 1 0 0 0 0 0 0 0 0 0 4 2 3 0 0 0 0 0 0 0 0 0 0 0 0 0 0 0 0 0 0 0 0 0 0 0
1 1 1 1 2 1 2 0 1 1 1 0 0 0 0 0 0 0 0 0 0 0 0 0 0 0 0 0 0 0 0 0 0 0 0 0 0 0 0 0 0 0 0 0 0 0 0
1 1 1 1 2 4 4 4 2 1 1 0 0 0 0 0 0 0 0 0 0 0 0 0 0 0 0 0 0 0 0 0 0 0 0 0 0 0 0 0 0 0 0 0 0 0 0
1 1 1 1 0 2 1 1 1 1 0 0 0 0 0 0 0 0 0 0 0 0 0 0 0 0 0 0 0 0 0 0 0 0 0 0 0 0 0 0 0 0 0 0 0 0 0
0 2 2 2 0 0 1 1 1 1 0 0 0 0 0 0 0 0 0 0 0 0 0 0 0 0 0 0 0 0 0 0 0 0 0 0 0 0 0 0 0 0 0 0 0 0 0
0 1 4 1 1 0 1 2 0 1 0 0 0 0 0 0 0 0 0 0 0 0 0 0 0 0 0 0 0 0 0 0 0 0 0 0 0 0 0 0 0 0 0 0 0 0 0
1 0 1 2 0 0 0 1 1 0 0 0 0 0 0 0 0 0 0 0 0 0 0 0 0 0 0 0 0 0 0 0 0 0 0 0 0 0 0 0 0 0 0 0 0 0 0
0 1 2 1 0 0 0 0 0 0 0 0 0 0 0 0 0 0 0 0 0 0 0 0 0 0 0 0 0 0 0 0 0 0 0 0 0 0 0 0 0 0 0 0 0 0 0
0 0 1 1 1 0 0 0 1 0 0 0 0 0 0 0 0 0 0 0 0 0 0 0 0 0 0 0 0 0 0 0 0 0 0 0 0 0 0 0 0 0 0 0 0 0 0
0 0 0 0 0 0 0 0 0 0 0 0 0 0 0 0 0 0 0 0 0 0 0 0 0 0 0 0 0 0 0 0 0 0 0 0 0 0 0 0 0 0 0 0 0 0 0
0 0 0 0 0 0 0 0 0 0 0 0 0 0 0 0 0 0 0 0 0 0 0 0 0 0 0 0 0 0 0 0 0 0 0 0 0 0 0 0 0 0 0 0 0 0 0
0 0 0 0 0 0 0 0 0 0 0 0 0 0 0 0 0 0 0 0 0 0 0 0 0 0 0 0 0 0 0 0 0 0 0 0 0 0 0 0 0 0 0 0 0 0 0
0 0 0 0 0 0 0 0 0 0 0 0 0 0 0 0 0 0 0 0 0 0 0 0 0 0 0 0 0 0 0 0 0 0 0 0 0 0 0 0 0 0 0 0 0 0 0
0 0 0 0 0 0 0 0 0 0 0 0 0 0 0 0 0 0 0 0 0 0 0 0 0 0 0 0 0 0 0 0 0 0 0 0 0 0 0 0 0 0 0 0 0 0 0
0 0 0 0 0 0 0 0 0 0 0 0 0 0 0 0 0 0 0 0 0 0 0 0 0 0 0 0 0 0 0 0 0 0 0 0 0 0 0 0 0 0 0 0 0 0 0
0 0 0 0 0 0 0 0 0 0 0 0 0 0 0 0 0 0 0 0 0 0 0 0 0 0 0 0 0 0 0 0 0 0 0 0 0 0 0 0 0 0 0 0 0 0 0
0 0 0 0 0 0 0 0 0 0 0 0 0 0 0 0 0 0 0 0 0 0 0 0 0 0 0 0 0 0 0 0 0 0 0 0 0 0 0 0 0 0 0 0 0 0 0
0 0 0 0 0 0 0 0 0 0 0 0 0 0 0 0 0 0 0 0 0 0 0 0 0 0 0 0 0 0 0 0 0 0 0 0 0 0 0 0 0 0 0 0 0 0 0
0 0 0 0 0 0 0 0 0 0 0 0 0 0 0 0 0 0 0 0 0 0 0 0 0 0 0 0 0 0 0 0 0 0 0 0 0 0 0 0 0 0 0 0 0 0 0
0 0 0 0 0 0 0 0 0 0 0 0 0 0 0 0 0 0 0 0 0 0 0 0 0 0 0 0 0 0 0 0 0 0 0 0 0 0 0 0 0 0 0 0 0 0 0
0 0 0 0 0 0 0 0 0 0 0 0 0 0 0 0 0 0 0 0 0 0 0 0 0 0 0 0 0 0 0 0 0 0 0 0 0 0 0 0 0 0 0 0 0 0 0
5 0 0 0 0 0 0 0 0 0 0 0 0 0 0 0 0 0 0 0 0 0 0 0 0 0 0 0 0 0 0 0 0 0 0 0 0 0 0 0 0 0 0 0 0 0 0
12 2 0 0 0 0 0 0 0 0 0 0 0 0 0 0 0 0 0 0 0 0 0 0 0 0 0 0 0 0 0 0 0 0 0 0 0 0 0 0 0 0 0 0 0 0 0
17 11 0 0 0 0 0 0 0 0 0 0 0 0 0 0 0 0 0 0 0 0 0 0 0 0 0 0 0 0 0 0 0 0 0 0 0 0 0 0 0 0 0 0 0 0 0
CIN
0 0 -1 0 0 0 0 0 0 0 0 0 0 0 0 0 0 0 0 -5 -12 -5 -21 -8 -7 -12 -6 0 0 0 -37 -20 -23 -18 0 0 0 0 0 0 0 0 0 0 0 0 0
0 0 0 0 0 0 0 0 0 0 0 0 0 0 0 0 0 0 -17 -16 -9 -3 -4 -12 -13 -15 -1 0 0 0 -57 -50 -36 -5 0 0 0 0 0 0 0 0 0 0 0 0 0
0 0 0 0 -1 0 0 0 0 0 0 0 0 0 0 0 0 0 0 -15 -37 0 -3 -13 0 0 0 0 0 0 0 -66 0 -1 0 0 0 0 0 0 0 0 0 0 0 0 0
0 0 0 0 0 0 0 0 0 0 0 0 0 0 0 0 0 0 0 0 -69 -10 -29 0 0 0 0 0 0 0 0 0 0 0 0 0 0 0 0 0 0 0 0 0 0 0 0
0 0 0 0 0 0 0 0 0 0 0 0 0 0 0 0 0 0 0 0 -67 -38 -35 0 0 0 0 0 0 0 0 0 0 0 0 0 0 0 0 0 0 0 0 0 0 0 0
0 0 0 0 0 0 0 -1 0 0 0 0 0 0 0 0 0 0 0 0 0 -19 -9 -47 -12 0 0 0 0 0 0 0 0 0 0 0 0 0 0 0 0 0 0 0 0 0 0
0 0 0 0 0 0 0 0 0 0 0 0 0 0 0 0 0 0 0 0 0 0 0 0 0 0 0 0 0 0 0 0 0 0 0 0 0 0 0 0 0 0 0 0 0 0 0
0 0 0 0 0 0 0 0 0 0 0 0 0 0 0 0 0 0 0 0 0 0 0 0 0 0 0 0 0 0 0 0 0 0 0 0 0 0 0 0 0 0 0 0 0 0 0
0 0 0 0 0 0 0 0 0 0 0 0 0 0 0 0 0 0 0 0 0 0 0 0 0 -3 0 0 0 0 0 0 0 0 0 0 0 0 0 0 0 0 0 0 0 0 0
0 0 0 0 0 0 0 -1 0 0 0 0 0 0 0 0 0 0 0 0 0 0 0 0 0 0 0 0 0 0 0 0 0 0 0 0 0 0 0 0 0 0 0 0 0 0 0
0 0 0 0 0 0 0 0 0 0 0 0 0 0 0 0 0 0 0 0 0 0 0 0 0 0 0 0 0 0 0 0 0 0 0 0 0 0 0 0 0 0 0 0 0 0 0
0 0 0 0 0 0 0 -1 0 0 0 0 0 0 0 0 0 0 0 0 0 0 0 0 0 0 0 0 0 0 0 0 0 0 0 0 0 0 0 0 0 0 0 0 0 0 0
0 0 0 0 0 0 0 0 0 0 0 0 0 0 0 0 0 0 0 0 0 0 0 0 0 0 0 0 0 0 0 0 0 0 0 0 0 0 0 0 0 0 0 0 0 0 0
0 0 0 0 0 0 0 0 0 0 0 0 0 0 0 0 0 0 0 0 0 0 0 0 0 0 0 0 0 0 0 0 0 0 0 0 0 0 0 0 0 0 0 0 0 0 0
0 0 0 0 0 0 0 0 0 0 0 0 0 0 0 0 0 0 0 0 0 0 0 0 0 0 0 0 0 0 0 0 0 0 0 0 0 0 0 0 0 0 0 0 0 0 0
0 0 0 0 0 0 0 0 0 0 0 0 0 0 0 0 0 0 0 0 0 0 0 0 0 0 0 0 0 0 0 0 0 0 0 0 0 0 0 0 0 0 0 0 0 0 0
0 0 0 0 0 0 0 0 0 0 0 0 0 0 0 0 0 0 0 0 0 0 0 0 0 0 0 0 0 0 0 0 0 0 0 0 0 0 0 0 0 0 0 0 0 0 0
0 0 0 0 0 0 0 0 0 0 0 0 0 0 0 0 0 0 0 0 0 0 0 0 0 0 0 0 0 0 0 0 0 0 0 0 0 0 0 0 0 0 0 0 0 0 0
0 0 0 0 0 0 0 0 0 0 0 0 0 0 0 0 0 0 0 0 0 0 0 0 0 0 0 0 0 0 0 0 0 0 0 0 0 0 0 0 0 0 0 0 0 0 0
0 0 0 0 0 0 0 0 0 0 0 0 0 0 0 0 0 0 0 0 0 0 0 0 0 0 0 0 0 0 0 0 0 0 0 0 0 0 0 0 0 0 0 0 0 0 0
0 0 0 0 0 0 0 0 0 0 0 0 0 0 0 0 0 0 0 0 0 0 0 0 0 0 0 0 0 0 0 0 0 0 0 0 0 0 0 0 0 0 0 0 0 0 0
0 0 0 0 0 0 0 0 0 0 0 0 0 0 0 0 0 0 0 0 0 0 0 0 0 0 0 0 0 0 0 0 0 0 0 0 0 0 0 0 0 0 0 0 0 0 0
0 0 0 0 0 0 0 0 0 0 0 0 0 0 0 0 0 0 0 0 0 0 0 0 0 0 0 0 0 0 0 0 0 0 0 0 0 0 0 0 0 0 0 0 0 0 0
0 0 0 0 0 0 0 0 0 0 0 0 0 0 0 0 0 0 0 0 0 0 0 0 0 0 0 0 0 0 0 0 0 0 0 0 0 0 0 0 0 0 0 0 0 0 0
0 0 0 0 0 0 0 0 0 0 0 0 0 0 0 0 0 0 0 0 0 0 0 0 0 0 0 0 0 0 0 0 0 0 0 0 0 0 0 0 0 0 0 0 0 0 0
-2 0 0 0 0 0 0 0 0 0 0 0 0 0 0 0 0 0 0 0 0 0 0 0 0 0 0 0 0 0 0 0 0 0 0 0 0 0 0 0 0 0 0 0 0 0 0
-10 0 0 0 0 0 0 0 0 0 0 0 0 0 0 0 0 0 0 0 0 0 0 0 0 0 0 0 0 0 0 0 0 0 0 0 0 0 0 0 0 0 0 0 0 0 0
-10 -18 0 0 0 0 0 0 0 0 0 0 0 0 0 0 0 0 0 0 0 0 0 0 0 0 0 0 0 0 0 0 0 0 0 0 0 0 0 0 0 0 0 0 0 0 0
-10 -17 0 0 0 0 0 0 0 0 0 0 0 0 0 0 0 0 0 0 0 0 0 0 0 0 0 0 0 0 0 0 0 0 0 0 0 0 0 0 0 0 0 0 0 0 0
Wind_Speed
27 29 28 24 21 17 15 15 16 15 17 19 22 25 26 28 31 33 30 20 19 17 15 13 11 8 12 19 22 20 21 19 20 20 26 27 30 30 34 32 29 31 27 23 22 19 18
23 26 28 26 21 18 14 13 14 14 13 14 15 17 20 25 27 33 33 25 21 17 15 12 10 7 14 19 18 18 15 11 17 20 25 26 28 26 30 31 31 29 25 24 22 20 18
19 21 23 21 21 17 15 13 12 13 12 11 12 12 15 19 22 28 32 27 23 18 15 14 12 12 17 21 15 16 14 14 17 20 23 25 22 25 26 29 26 23 28 25 24 22 20
16 17 18 17 18 17 16 13 12 12 12 10 11 12 13 15 16 19 23 23 23 19 16 16 15 12 17 17 16 16 15 15 17 20 21 22 23 24 24 23 25 27 26 31 27 22 22
15 15 15 15 15 15 14 15 12 11 11 10 11 12 12 13 15 16 17 16 13 16 16 14 12 13 17 15 17 17 15 15 17 20 21 21 21 24 24 29 30 28 33 31 27 23 22
16 15 14 14 14 14 13 14 14 11 10 10 10 12 13 13 13 15 17 16 16 12 19 16 13 15 16 14 14 14 14 13 16 18 20 22 24 28 28 31 39 34 30 30 28 25 25
18 15 15 14 13 13 13 13 14 12 11 10 10 10 12 12 12 14 18 20 20 15 14 16 15 16 14 12 12 14 14 14 14 19 25 24 30 33 31 29 26 27 27 28 28 23 24
19 16 13 13 12 11 12 12 12 13 12 11 10 9 11 12 12 14 15 21 20 23 20 17 17 15 17 14 11 13 14 15 19 23 21 24 31 25 23 22 23 25 27 26 24 24 25
17 16 16 14 13 12 12 12 11 12 13 13 12 10 9 12 14 15 15 17 17 18 20 16 15 12 16 15 15 14 16 17 19 20 22 26 24 22 23 23 23 24 27 27 24 22 23
15 14 15 15 13 12 13 13 11 11 12 13 15 14 13 15 15 15 13 16 16 16 21 19 16 15 16 17 13 17 18 18 19 19 18 18 20 21 21 24 23 25 23 23 23 22 27
12 12 11 13 14 13 12 13 13 12 12 13 15 17 16 16 15 15 15 15 16 17 23 13 16 16 15 17 21 17 16 17 20 17 18 21 21 21 22 22 21 22 19 19 21 22 24
7 11 11 9 10 13 14 13 13 13 12 13 15 16 19 17 15 14 15 16 17 22 25 17 15 15 17 16 18 19 17 14 20 15 10 16 15 18 19 17 18 14 16 16 18 21 30
4 5 8 8 9 11 14 14 15 12 11 13 15 15 17 18 18 16 16 18 22 26 17 17 16 17 18 17 18 18 19 21 17 17 18 16 18 17 17 18 17 18 17 22 26 27 30
4 1 1 5 7 9 12 16 17 15 12 16 16 16 17 16 18 20 17 21 30 24 23 20 18 16 20 17 16 16 19 20 18 15 13 19 22 19 18 19 20 20 19 22 27 27 26
4 2 3 3 5 7 9 11 16 17 17 18 18 17 17 15 15 17 19 24 25 23 21 21 20 19 20 19 16 15 17 20 18 17 13 15 18 17 16 17 18 20 22 17 20 21 26
24 23 19 11 4 4 6 9 11 18 16 19 18 17 18 15 15 16 19 23 21 19 18 18 21 20 21 20 17 18 19 18 18 17 16 15 14 17 17 16 16 18 13 20 21 27 30
25 27 27 27 27 23 11 6 7 13 18 18 19 19 17 17 17 19 21 20 19 17 16 16 18 19 19 20 19 19 18 17 18 17 15 15 14 16 17 19 18 17 19 18 17 20 25
25 27 28 29 30 30 31 29 23 12 24 21 21 23 20 18 19 18 19 17 15 16 15 16 15 15 18 19 19 19 19 19 19 18 17 16 13 13 17 19 19 20 19 17 21 23 21
25 27 28 29 30 31 32 33 34 33 26 22 24 23 20 19 24 22 17 14 14 13 13 15 15 16 15 16 17 18 18 18 17 19 19 18 16 14 16 19 20 20 20 19 18 19 21
25 27 29 29 30 31 32 33 34 35 28 23 24 26 24 25 23 22 19 18 16 12 12 13 14 15 15 15 15 16 17 17 17 19 19 19 21 20 18 17 16 18 19 18 18 21 24
26 27 28 29 31 31 32 33 33 34 28 22 24 23 23 27 26 24 21 19 18 16 13 12 12 13 14 13 13 15 16 17 18 19 20 21 23 25 27 28 27 27 22 9 9 15 17
27 27 28 29 30 31 31 32 33 33 26 23 23 23 22 23 22 24 24 22 20 18 15 14 13 12 11 10 12 11 13 15 16 17 19 22 24 24 27 26 29 34 36 18 10 19 19
27 28 28 28 30 30 30 31 31 32 26 22 20 21 21 23 24 25 21 21 22 23 19 18 16 15 13 12 15 18 17 12 8 6 6 11 12 20 23 25 29 34 22 11 20 21 21
28 27 30 28 29 29 29 30 30 29 26 22 20 20 22 24 23 23 22 20 19 19 19 21 19 18 18 18 19 20 20 20 18 16 16 10 9 12 18 22 28 22 20 20 17 20 16
29 28 29 29 29 29 29 28 28 27 26 22 21 21 21 25 23 25 22 22 21 19 19 19 18 17 17 20 22 21 19 19 20 22 19 20 14 17 23 22 29 27 24 23 22 25 23
30 29 29 29 29 28 28 27 27 27 26 22 22 22 23 25 24 22 23 22 23 22 23 20 19 16 18 20 21 21 19 18 17 16 19 18 18 16 20 27 31 22 22 21 21 30 25
32 31 30 29 28 28 26 27 27 27 26 23 22 21 22 25 25 21 23 24 20 22 23 22 20 20 18 21 23 24 24 21 23 21 19 19 21 19 21 28 29 24 24 23 29 28 22
32 30 29 29 29 28 26 26 26 27 26 23 23 22 21 25 27 23 24 24 24 22 24 20 22 21 21 22 23 24 24 22 24 22 22 22 22 23 23 28 34 23 21 25 23 23 24
35 33 32 31 29 29 28 26 26 27 27 25 26 24 23 24 26 23 23 23 22 23 22 20 23 20 16 20 21 22 24 24 24 28 22 26 22 25 22 25 22 21 23 24 25 28 28
Wind_Direction
55 47 43 47 49 58 61 60 56 56 55 52 51 47 44 34 27 24 16 13 346 341 330 316 310 303 276 270 269 290 282 256 249 249 240 237 231 231 231 234 235 241 245 253 261 267 270
65 57 51 51 55 60 64 64 60 58 61 61 61 64 58 44 38 28 25 32 15 351 340 334 319 299 275 267 278 287 291 261 247 247 239 236 233 236 235 234 233 241 246 250 258 263 268
72 67 61 62 59 62 62 65 65 63 66 73 74 76 69 62 55 42 31 33 20 348 327 324 306 291 270 260 288 285 282 262 251 247 239 236 237 235 236 231 236 241 240 247 253 259 265
77 73 70 67 63 60 60 63 67 67 71 83 83 86 84 77 74 67 55 47 33 4 342 305 301 299 272 277 279 277 275 262 252 245 243 237 238 239 236 234 233 236 241 239 248 255 263
80 76 72 68 63 60 58 59 67 73 75 86 86 86 84 86 81 75 67 72 84 8 313 291 294 281 268 275 267 270 270 256 249 239 235 239 234 233 233 225 226 235 235 239 246 254 262
78 76 72 68 62 57 56 57 64 78 84 87 91 86 83 83 86 79 72 86 96 128 60 94 256 270 263 258 267 265 264 251 242 228 227 228 227 227 228 224 224 229 236 240 246 253 258
73 75 70 66 60 55 52 55 63 76 86 90 94 92 85 87 90 87 81 80 83 106 139 171 220 210 245 258 263 257 251 241 234 223 218 224 218 222 225 229 232 233 239 243 249 261 261
69 72 70 63 57 52 49 51 63 74 84 86 94 100 92 90 96 91 94 79 90 88 102 139 148 207 210 237 255 252 234 237 222 214 219 218 217 226 226 229 232 235 238 245 256 259 264
74 72 67 63 57 51 45 47 59 76 85 84 86 104 109 99 95 98 95 95 110 114 106 115 151 196 193 211 225 225 223 226 215 216 218 216 219 229 227 229 232 239 241 245 255 264 268
77 74 67 63 58 51 45 43 56 76 89 90 83 91 113 106 98 102 107 109 117 138 104 116 149 169 183 194 215 212 219 216 214 213 218 223 229 227 228 231 239 240 250 252 255 263 263
84 77 72 64 58 52 43 42 53 73 92 94 87 83 102 111 101 101 105 116 118 120 96 132 143 160 184 189 179 201 213 214 210 217 229 226 225 227 230 236 244 245 256 254 257 262 270
98 78 72 64 57 53 48 41 48 65 89 94 90 85 96 95 102 108 113 115 116 93 96 130 144 155 167 183 177 185 202 216 201 220 242 232 241 239 240 244 248 244 255 262 265 268 265
126 92 72 61 54 53 51 47 48 61 77 95 89 91 96 95 86 113 115 108 90 86 109 121 138 145 163 180 177 183 184 185 207 216 225 232 236 244 246 242 248 251 251 254 256 260 264
142 165 33 53 52 50 52 50 48 56 74 87 92 90 92 101 98 100 113 94 79 95 104 113 127 153 150 183 194 191 187 189 192 222 230 226 227 238 249 248 248 249 255 256 256 262 272
214 203 279 314 49 45 47 47 48 51 62 76 88 88 85 97 110 102 93 83 86 98 109 112 116 133 148 164 197 211 208 203 208 215 242 235 239 248 253 255 254 253 256 271 274 282 279
317 314 307 294 310 28 33 41 41 49 60 66 76 83 76 93 104 100 92 88 96 109 115 115 110 123 130 147 183 199 203 223 223 227 238 248 249 250 255 258 266 264 265 267 275 273 275
339 330 329 324 327 318 310 348 16 46 54 66 62 66 72 85 91 87 86 97 106 114 114 117 116 119 130 143 154 181 196 223 229 234 244 251 263 257 257 257 260 265 269 278 284 283 283
329 335 333 334 331 333 335 330 321 33 43 57 47 41 56 74 75 86 89 102 113 111 117 119 128 132 129 136 147 164 173 200 223 234 247 252 271 271 264 267 269 270 275 277 280 284 291
326 325 331 334 334 330 333 340 340 338 32 45 33 33 51 57 44 56 83 102 110 112 115 116 123 132 145 144 142 152 163 200 222 224 237 246 268 276 278 274 271 275 275 281 289 295 290
321 326 325 327 329 333 330 334 340 344 17 31 29 13 24 26 27 36 47 56 72 114 122 125 127 134 134 142 158 150 164 183 218 210 234 242 248 260 276 284 284 284 284 282 286 291 293
317 320 324 325 326 328 331 335 337 339 3 19 13 13 23 3 358 360 11 26 32 48 94 125 124 134 135 123 140 150 161 175 192 229 232 227 217 230 236 246 266 274 290 291 248 288 293
312 319 324 325 326 328 331 332 336 335 356 1 360 3 9 10 14 1 350 353 0 12 26 33 47 70 119 116 137 120 141 165 174 177 190 246 229 252 250 277 270 248 256 297 265 296 292
308 312 318 323 325 327 328 331 334 337 349 352 357 356 356 353 354 353 358 353 343 339 347 348 356 2 8 3 337 310 309 339 16 68 87 341 334 307 298 295 290 276 303 287 301 301 301
303 308 309 318 321 324 327 328 332 338 346 345 346 346 343 340 342 345 348 351 347 344 339 333 334 336 333 331 323 315 310 307 310 313 310 333 342 332 317 316 299 312 317 318 313 314 308
297 302 306 309 315 319 321 324 327 332 338 339 338 336 334 328 333 333 338 337 336 337 333 331 334 335 334 325 319 319 320 316 308 300 301 301 312 315 308 306 307 307 312 313 313 313 316
291 296 301 305 309 314 316 320 323 326 330 332 331 328 324 323 326 331 332 333 327 325 323 326 329 333 329 320 315 314 313 318 319 321 310 305 306 305 309 304 303 320 320 320 322 310 321
286 289 294 299 303 308 311 313 317 322 325 325 324 326 322 317 319 324 323 325 330 324 319 321 323 319 319 312 307 306 305 309 306 306 307 305 303 293 296 301 307 312 314 319 309 313 325
281 284 289 293 296 300 304 307 311 312 315 318 317 322 319 312 311 314 316 318 320 317 312 320 320 317 312 305 306 305 303 304 305 305 305 300 300 301 301 300 302 316 317 311 318 322 322
276 278 282 285 289 294 297 300 304 307 309 311 308 312 313 308 308 315 314 314 314 314 311 309 310 315 314 312 308 310 303 305 304 300 304 300 299 303 298 305 313 316 315 318 319 318 319